Other Public Products
Issued by NWS Grand Forks, ND

Home | Current Version | Previous Version | Text Only | Print | Product List | Glossary Off
Versions: 1 2 3 4 5 6 7 8 9 10 11 12 13 14 15 16 17 18 19 20 21 22 23 24 25 26 27 28 29 30 31 32 33 34 35 36 37 38 39 40 41 42 43 44 45 46 47 48 49 50

000
FPUS83 KFGF 222231
OPUFGF
PRAIRIE TO PINES WEATHER ROUNDUP
NATIONAL WEATHER SERVICE EASTERN NORTH DAKOTA/GRAND FORKS ND
500 PM CDT TUE AUG 22 2017

 **SATELLITE DATA USED TO AUGMENT SKY COVER AT AUTOMATED STATIONS**
 *****  WEATHER ACROSS EASTERN NORTH DAKOTA  *****

CITY           SKY/WX    TMP DP  RH WIND       PRES   REMARKS
GRAND FORKS    FAIR      77  46  33 N16       30.05S
GRAND FORKS AF FAIR      75  43  31 N17       30.07R
GRAND CITY NWS NOT AVBL
BUXTON           N/A     75  39  28 NW12G24     N/A
DEVILS LAKE    FAIR      73  40  30 NW10G22   30.12S
FARGO          FAIR      76  43  30 NW17G28   30.06F
WAHPETON ARPT  FAIR      72  41  33 NW16      30.08F
$$

 *****  WEATHER ACROSS CENTRAL AND WESTERN NORTH DAKOTA  *****

CITY           SKY/WX    TMP DP  RH WIND       PRES   REMARKS
JAMESTOWN      FAIR      73  46  38 NW15      30.12F
BISMARCK       FAIR      78  38  23 W9        30.15F
MINOT          FAIR      79  37  22 VRB6      30.12F
MINOT AFB      FAIR      77  36  23 N7        30.10F
GARRISON         N/A     77  38  24 NW9       30.13F
WILLISTON      FAIR      80  40  23 VRB3      30.13F
DICKINSON      FAIR      78  41  26 VRB5      30.14F
HETTINGER      FAIR      80  41  24 VRB6      30.16F
$$

 *****  OTHER OBSERVATIONS NORTHEAST NORTH DAKOTA  *****

CITY           SKY/WX    TMP DP  RH WIND       PRES   REMARKS
WALHALLA       FAIR      73  70  88 N16G23    30.06S
LANGDON        FAIR      72  39  30 NW14G22   30.09S
CAVALIER       FAIR      73  43  33 NW17G23   30.05S
GRAFTON        FAIR      75  45  33 NW16      30.07S
CANDO          FAIR      73  43  33 NW13      30.13S
FORT TOTTEN    NOT AVBL
ROLLA          FAIR      72  39  30 N15G23    30.13S
RUGBY          FAIR      75  39  27 NW14      30.11S
 ***** THE ABOVE OBSERVATIONS ARE NON NWS ARE NOT QUALITY
        CONTROLLED AND MAY MIS-REPORT RAIN FOR SNOW...
$$

 *****  OTHER OBSERVATIONS SOUTHEAST NORTH DAKOTA *****

CITY           SKY/WX    TMP DP  RH WIND       PRES   REMARKS
COOPERSTOWN    FAIR      73  43  33 NW17      30.11S
VALLEY CITY      N/A     73  43  33 NW15G23   30.13S
OAKES          NOT AVBL
GWINNER        CLEAR     73  46  38 NW14      30.11F
SHEYENNE NWR     N/A     75  43  31 NW12      29.95S
BUFFALO          N/A     74  37  25 N12G23      N/A
WYNDMERE       NOT AVBL
 ***** THE ABOVE OBSERVATIONS ARE NON NWS ARE NOT QUALITY
       CONTROLLED AND MAY MIS-REPORT RAIN FOR SNOW...
$$

  *****  WEATHER ACROSS NORTHERN MINNESOTA  *****

CITY           SKY/WX    TMP DP  RH WIND       PRES   REMARKS
FLAG ISLAND    PTSUNNY   64  52  63 N9G17     29.99S
WARROAD        FAIR      64  57  77 NW14G21   30.01S
ROSEAU         FAIR      68  55  64 NW15      30.02R
HALLOCK        FAIR      73  39  29 N21       30.03S
THF RVR FALLS  FAIR      73  45  36 NW22G30   30.04S
HALSTAD          N/A     75  41  29 N18         N/A
FOSSTON        FAIR      73  41  31 NW15G24   30.05S
BAUDETTE       PTSUNNY   65  56  72 NW17G24   29.99R
WASKISH        CLOUDY    61  59  94 N10       30.00R
CROOKSTON      FAIR      73  43  33 NW18G29   30.05S
$$
  *****  WEATHER ACROSS CENTRAL AND WEST MINNESOTA  *****

CITY           SKY/WX    TMP DP  RH WIND       PRES   REMARKS
BEMIDJI        FAIR      70  45  40 NW18G29   30.02S
PARK RAPIDS    FAIR      73  42  32 NW25G31   30.03F
WADENA         FAIR      70  46  43 NW9       30.05S
DETROIT LAKES  FAIR      72  41  33 NW15G25   30.07S
MOORHEAD       FAIR      75  43  31 NW16G22   30.07S
FERGUS FALLS   FAIR      72  48  43 NW15      30.07S
ELBOW LAKE     FAIR      71  48  44 NW14G22   30.09S
MORRIS MN      FAIR      73  46  38 NW15      30.09S
STAPLES        FAIR      70  39  32 NW16      30.04S
WHEATON        FAIR      73  43  33 NW16      30.11F
$$
  *****  WEATHER ELSEWHERE ACROSS MINNESOTA  *****

CITY           SKY/WX    TMP DP  RH WIND       PRES   REMARKS
DULUTH         LGT RAIN  59  55  87 NW12G22   29.97R
INTRNTL FALLS  PTSUNNY   64  54  69 NW12      29.94R
ELY            FAIR      61  54  77 NW7G17    29.92S
CLOQUET        PTSUNNY   66  46  48 NW9G18    29.97R
BRAINERD       PTSUNNY   72  45  37 NW12G29   30.02S
HIBBING        PTSUNNY   63  55  75 NW12G18   29.97R
ALEXANDRIA     FAIR      71  45  39 NW16G25   30.09F
SAINT CLOUD    FAIR      72  48  42 NW17      30.04S
MINNEAPOLIS    PTSUNNY   74  45  35 NW20      30.03S
$$

  *****  WEATHER ACROSS SOUTH DAKOTA  *****

CITY           SKY/WX    TMP DP  RH WIND       PRES   REMARKS
SIOUX FALLS    FAIR      76  49  38 NW13      30.15F
BROOKINGS      FAIR      72  47  40 NW15      30.15F
WATERTOWN      FAIR      72  45  37 W13G23    30.13F
HURON          FAIR      77  46  33 N15       30.14F
SISSETON         N/A     74  49  41 NW15G23   30.09F
ABERDEEN       FAIR      78  43  28 NW14      30.13F
MITCHELL       FAIR      77  46  33 NW7       30.15F
PIERRE         FAIR      79  44  28 CALM      30.13F
MOBRIDGE       FAIR      78  49  35 SW3       30.12F
RAPID CITY     FAIR      84  47  27 S13G18    30.13F
$$

  *****  SOME WEATHER IN NEARBY STATES *****

CITY           SKY/WX    TMP DP  RH WIND       PRES   REMARKS
GLASGOW MT     FAIR      83  33  16 S9        30.08F
GREAT FALLS MT FAIR      88  32  13 E8        30.08F
CHEYENNE WY    FAIR      76  53  44 S18G25    30.29F
SCOTTSBLUFF NE FAIR      84  50  30 S14       30.18F
OMAHA NE       FAIR      77  51  40 N8        30.15S
DES MOINES IA  FAIR      77  48  35 NW12      30.09F
DAVENPORT IA   FAIR      75  53  46 NW17      30.03R
CHICAGO IL     FAIR      80  50  34 NW17      29.91S
EAU CLAIRE WI  FAIR      72  46  39 NW13      29.98R
LA CROSSE WI   FAIR      78  48  34 NW14      29.99F
$$

  *****  SOME NATIONAL WEATHER *****

CITY           SKY/WX    TMP DP  RH WIND       PRES   REMARKS
LA GUARDIA NY  FAIR      89  75  63 S14G21    29.79F HX  99
RALEIGH NC     FAIR      90  70  51 S10       29.94F HX  95
ATLANTA GA     FAIR      91  67  44 SW10      30.02S HX  94
NEW ORLEANS LA PTSUNNY   88  75  65 CALM      30.02S HX  97
OKLAHOMA CITY  FAIR      90  68  48 CALM      29.99F HX  94
ALBUQUERQUE NM PTSUNNY   83  52  34 VRB5      30.23F
SALT LAKE CITY PTSUNNY   89  44  20 N9        30.13F
LOS ANGELES CA FAIR      74  64  71 W16       29.97F
BOISE ID       FAIR      92  42  17 W6        30.04F
SEATTLE WA     FAIR      84  55  36 SW7       30.01F
$$

*** WEATHER ACROSS MANITOBA...SASKATCHEWAN AND ONTARIO ***
                ***ONTARIO***

CITY           SKY/WX    TMP DP  RH WIND       PRES   REMARKS
GERALDTON      PTSUNNY   55  54  94 W6        29.70S
THUNDER BAY    PTSUNNY   66  52  59 NW14      29.79S
SIOUX LOOKOUT  LGT RAIN  59  55  88 N6        29.89R
TORONTO        LGT RAIN  77  64  65 NW21G29   29.65R
BIG TROUT LK   MOSUNNY   57  39  51 N9G23     29.89R
PICKLE LAKE    PTSUNNY   55  48  76 N13G25    29.85R
DRYDEN         LGT RAIN  59  54  82 NW14G22   29.92R
KENORA         PTSUNNY   61  48  63 N14G23    29.99R
$$
                *** MANITOBA***

CITY           SKY/WX    TMP DP  RH WIND       PRES   REMARKS
BRANDON        PTSUNNY   75  37  25 NW16      30.09S
DAUPHIN        MOSUNNY   75  45  33 NE7       30.07S
ISLAND LAKE    PTSUNNY   54  43  66 N10       30.06R
PILOT MOUND      N/A     73  37  27 NW13G20     N/A
THE PAS        MOSUNNY   73  46  38 N5        30.03F
THOMPSON       PTSUNNY   59  45  58 N3        30.08S
WINNIPEG       LGT RAIN  68  50  52 N18       30.05R
CHURCHILL      MOSUNNY   52  41  66 N6        30.10S
GILLAM         SUNNY     59  39  47 NE6       30.07S
$$
                ***SASKATCHEWAN***

CITY           SKY/WX    TMP DP  RH WIND       PRES   REMARKS
ESTEVAN        PTSUNNY   79  41  25 NW8       30.12F
KINDERSLEY     MOSUNNY   82  45  26 VRB5      30.04F
LLOYDMINSTER   PTSUNNY   73  55  53 W8        30.02F
PRINCE ALBERT  PTSUNNY   70  50  49 SE9       30.05F
REGINA         PTSUNNY   79  39  24 W9        30.07F
YORKTON        CLOUDY    68  46  45 W6        30.11S
N. BATTLEFORD  MOSUNNY   75  54  46 NW12G21   30.06S



USA.gov is the U.S. government's official web portal to all federal, state and local government web resources and services.